LGX69M EBBR-LIME

Flight info

Callsign LGX69M
Flight time 1h 28m
Altitude 35000
Route ROUSY DCT GTQ DCT DEVDI DCT RIPUS DCT GERSA DCT SOSON DCT ODINA
Aircraft B77L/H-SDE2E3FGHIRWXY/LB1

Departure

Time 2026-05-04 18:03
Airport Brussels Airport (EBBR)

Arrival

Time 2026-05-04 19:32
Airport Il Caravaggio International Airport (LIME)
Time Latitude Longitude Altitude Speed Heading
2026-05-04 17:18 50.90329 4.45912 140 ft 0 kts 336°
2026-05-04 17:51 50.90329 4.45911 140 ft 0 kts 336°
2026-05-04 17:51 50.90323 4.45916 140 ft 2 kts 336°
2026-05-04 17:51 50.90300 4.45932 140 ft 3 kts 336°
2026-05-04 17:52 50.90276 4.45951 140 ft 3 kts 327°
2026-05-04 17:52 50.90258 4.45977 140 ft 3 kts 302°
2026-05-04 17:52 50.90252 4.46009 140 ft 1 kts 267°
2026-05-04 17:52 50.90255 4.46027 140 ft 0 kts 249°
2026-05-04 17:53 50.90252 4.46016 140 ft 2 kts 247°
2026-05-04 17:53 50.90246 4.45997 140 ft 0 kts 246°
2026-05-04 17:57 50.90231 4.45946 140 ft 13 kts 245°
2026-05-04 17:58 50.90184 4.45790 141 ft 15 kts 245°
2026-05-04 17:58 50.90142 4.45641 142 ft 13 kts 246°
2026-05-04 17:58 50.90094 4.45531 143 ft 11 kts 206°
2026-05-04 17:58 50.90027 4.45561 143 ft 10 kts 154°
2026-05-04 17:59 50.90012 4.45573 143 ft 0 kts 153°
2026-05-04 18:02 50.89940 4.45731 143 ft 0 kts 65°
2026-05-04 18:02 50.89940 4.45732 143 ft 0 kts 65°
2026-05-04 18:03 50.89945 4.45747 142 ft 13 kts 65°
2026-05-04 18:03 50.90133 4.46388 139 ft 114 kts 66°
2026-05-04 18:03 50.90590 4.47980 203 ft 196 kts 67°
2026-05-04 18:03 50.91176 4.49930 1406 ft 202 kts 61°
2026-05-04 18:04 50.91825 4.51888 2458 ft 219 kts 64°
2026-05-04 18:04 50.92454 4.54100 3652 ft 222 kts 68°
2026-05-04 18:04 50.93728 4.58869 5036 ft 254 kts 65°
2026-05-04 18:05 50.94329 4.61531 5855 ft 265 kts 78°
2026-05-04 18:05 50.94588 4.64419 6872 ft 268 kts 82°
2026-05-04 18:05 50.94796 4.67366 7808 ft 274 kts 82°
2026-05-04 18:05 50.95004 4.70335 8753 ft 277 kts 82°
2026-05-04 18:06 50.95208 4.76448 10545 ft 287 kts 96°
2026-05-04 18:06 50.94788 4.79532 11418 ft 292 kts 106°
2026-05-04 18:06 50.93997 4.82499 12293 ft 297 kts 117°
2026-05-04 18:07 50.92852 4.85203 13148 ft 301 kts 128°
2026-05-04 18:07 50.91392 4.87580 14018 ft 304 kts 137°
2026-05-04 18:07 50.89704 4.89610 14863 ft 307 kts 146°
2026-05-04 18:07 50.87787 4.91060 15541 ft 317 kts 164°
2026-05-04 18:08 50.85541 4.91458 15937 ft 336 kts 177°
2026-05-04 18:08 50.83150 4.91488 16354 ft 353 kts 179°
2026-05-04 18:08 50.80652 4.91481 16821 ft 368 kts 179°
2026-05-04 18:08 50.78036 4.91469 17354 ft 381 kts 179°
2026-05-04 18:09 50.72679 4.91446 18985 ft 390 kts 178°
2026-05-04 18:09 50.67342 4.92942 20691 ft 395 kts 160°
2026-05-04 18:10 50.64852 4.94699 21411 ft 401 kts 151°
2026-05-04 18:10 50.62509 4.97165 22120 ft 407 kts 142°
2026-05-04 18:10 50.60443 5.00163 22856 ft 412 kts 136°
2026-05-04 18:10 50.58428 5.03338 23561 ft 416 kts 136°
2026-05-04 18:11 50.56378 5.06559 24251 ft 420 kts 137°
2026-05-04 18:11 50.54301 5.09803 25011 ft 422 kts 138°
2026-05-04 18:11 50.52231 5.13022 25735 ft 424 kts 139°
2026-05-04 18:11 50.50133 5.16270 26374 ft 428 kts 139°
2026-05-04 18:12 50.48003 5.19560 27010 ft 432 kts 139°
2026-05-04 18:12 50.45861 5.22861 27695 ft 435 kts 140°
2026-05-04 18:12 50.43704 5.26179 28417 ft 437 kts 140°
2026-05-04 18:12 50.41505 5.29553 29143 ft 439 kts 140°
2026-05-04 18:13 50.39330 5.32886 29831 ft 442 kts 141°
2026-05-04 18:13 50.37143 5.36231 30479 ft 444 kts 141°
2026-05-04 18:13 50.32688 5.43025 31514 ft 453 kts 141°
2026-05-04 18:14 50.30453 5.46429 32021 ft 456 kts 141°
2026-05-04 18:14 50.28171 5.49899 32545 ft 459 kts 141°
2026-05-04 18:14 50.25887 5.53367 33016 ft 462 kts 141°
2026-05-04 18:15 50.21264 5.60373 34064 ft 465 kts 141°
2026-05-04 18:15 50.16656 5.67338 34978 ft 463 kts 142°
2026-05-04 18:16 50.12070 5.74252 34949 ft 453 kts 142°
2026-05-04 18:16 50.07154 5.80218 34950 ft 448 kts 156°
2026-05-04 18:17 50.01532 5.83875 34953 ft 435 kts 166°
2026-05-04 18:17 49.98654 5.85385 34955 ft 433 kts 166°
2026-05-04 18:18 49.90120 5.89812 34947 ft 435 kts 166°
2026-05-04 18:18 49.84374 5.92774 34954 ft 434 kts 166°
2026-05-04 18:19 49.75789 5.97180 34973 ft 435 kts 166°
2026-05-04 18:19 49.70089 6.00095 34973 ft 434 kts 166°
2026-05-04 18:20 49.64355 6.03019 34971 ft 435 kts 166°
2026-05-04 18:20 49.58609 6.05942 34972 ft 434 kts 166°
2026-05-04 18:21 49.52850 6.08864 34969 ft 436 kts 166°
2026-05-04 18:21 49.47275 6.12434 34971 ft 441 kts 155°
2026-05-04 18:22 49.42278 6.18086 34972 ft 449 kts 146°
2026-05-04 18:22 49.37426 6.24125 34967 ft 451 kts 146°
2026-05-04 18:23 49.32568 6.30145 34964 ft 450 kts 146°
2026-05-04 18:23 49.27700 6.36150 34965 ft 451 kts 146°
2026-05-04 18:24 49.22814 6.42156 34968 ft 453 kts 146°
2026-05-04 18:24 49.17912 6.48166 34965 ft 450 kts 146°
2026-05-04 18:25 49.13028 6.54135 34976 ft 451 kts 146°
2026-05-04 18:25 49.08114 6.60125 34977 ft 452 kts 146°
2026-05-04 18:26 49.03221 6.66074 34975 ft 451 kts 147°
2026-05-04 18:26 48.98199 6.71699 34973 ft 445 kts 155°
2026-05-04 18:27 48.92642 6.75724 34973 ft 443 kts 160°
2026-05-04 18:27 48.87030 6.79556 34988 ft 441 kts 160°
2026-05-04 18:28 48.81405 6.83383 34992 ft 444 kts 160°
2026-05-04 18:28 48.75797 6.87191 34990 ft 443 kts 160°
2026-05-04 18:29 48.70158 6.91009 34991 ft 444 kts 160°
2026-05-04 18:29 48.64530 6.94810 34992 ft 446 kts 160°
2026-05-04 18:30 48.56069 7.00508 34993 ft 447 kts 160°
2026-05-04 18:31 48.50384 7.04324 34995 ft 446 kts 160°
2026-05-04 18:31 48.44702 7.08129 34995 ft 447 kts 160°
2026-05-04 18:32 48.39051 7.11904 34994 ft 447 kts 160°
2026-05-04 18:32 48.33360 7.15696 34995 ft 448 kts 160°
2026-05-04 18:33 48.27668 7.19481 34996 ft 449 kts 160°
2026-05-04 18:33 48.21963 7.23263 34999 ft 450 kts 160°
2026-05-04 18:34 48.16262 7.27035 35003 ft 450 kts 160°
2026-05-04 18:34 48.10537 7.30812 35005 ft 452 kts 160°
2026-05-04 18:35 48.04780 7.34603 35003 ft 451 kts 160°
2026-05-04 18:35 47.99018 7.38385 35001 ft 452 kts 160°
2026-05-04 18:36 47.93282 7.42143 34995 ft 452 kts 160°
2026-05-04 18:36 47.87526 7.45905 35005 ft 453 kts 160°
2026-05-04 18:37 47.81727 7.49684 35028 ft 456 kts 160°
2026-05-04 18:37 47.76096 7.53793 35019 ft 460 kts 150°
2026-05-04 18:38 47.71220 7.60126 35010 ft 472 kts 134°
2026-05-04 18:38 47.67296 7.67927 35021 ft 475 kts 130°
2026-05-04 18:39 47.63425 7.75794 35009 ft 474 kts 130°
2026-05-04 18:39 47.59531 7.83649 34992 ft 475 kts 130°
2026-05-04 18:40 47.55615 7.91505 35009 ft 474 kts 130°
2026-05-04 18:40 47.51679 7.99367 35008 ft 476 kts 130°
2026-05-04 18:41 47.47742 8.07203 35011 ft 476 kts 130°
2026-05-04 18:41 47.43802 8.15020 35017 ft 478 kts 130°
2026-05-04 18:42 47.39834 8.22870 35020 ft 476 kts 130°
2026-05-04 18:42 47.35876 8.30676 35013 ft 478 kts 130°
2026-05-04 18:43 47.31895 8.38503 35021 ft 475 kts 130°
2026-05-04 18:43 47.27266 8.45246 35007 ft 470 kts 147°
2026-05-04 18:44 47.21563 8.49619 35017 ft 463 kts 164°
2026-05-04 18:44 47.15322 8.51442 35019 ft 456 kts 176°
2026-05-04 18:45 47.08993 8.52422 35029 ft 458 kts 176°
2026-05-04 18:45 47.02684 8.53364 35029 ft 457 kts 176°
2026-05-04 18:46 46.96367 8.54290 35031 ft 457 kts 176°
2026-05-04 18:46 46.90041 8.55209 35042 ft 458 kts 176°
2026-05-04 18:47 46.83703 8.56123 35070 ft 458 kts 176°
2026-05-04 18:47 46.77372 8.57033 35075 ft 458 kts 177°
2026-05-04 18:48 46.71023 8.57941 35082 ft 460 kts 176°
2026-05-04 18:48 46.64745 8.58839 34725 ft 454 kts 177°
2026-05-04 18:48 46.61585 8.59288 33934 ft 457 kts 176°
2026-05-04 18:49 46.58452 8.59733 33130 ft 459 kts 176°
2026-05-04 18:49 46.55289 8.60182 32326 ft 460 kts 176°
2026-05-04 18:49 46.52096 8.60634 31532 ft 461 kts 176°
2026-05-04 18:49 46.48904 8.61087 30775 ft 461 kts 176°
2026-05-04 18:50 46.45731 8.61536 30328 ft 455 kts 176°
2026-05-04 18:50 46.42606 8.61979 29882 ft 448 kts 176°
2026-05-04 18:50 46.39523 8.62415 29396 ft 442 kts 176°
2026-05-04 18:50 46.36510 8.62840 28917 ft 437 kts 176°
2026-05-04 18:51 46.33468 8.63267 28440 ft 445 kts 176°
2026-05-04 18:51 46.30345 8.63705 27901 ft 450 kts 176°
2026-05-04 18:51 46.27280 8.64136 27379 ft 447 kts 176°
2026-05-04 18:51 46.24180 8.64572 26845 ft 444 kts 176°
2026-05-04 18:52 46.21129 8.65000 26330 ft 441 kts 176°
2026-05-04 18:52 46.18115 8.65502 25819 ft 439 kts 172°
2026-05-04 18:52 46.15158 8.66634 25277 ft 438 kts 162°
2026-05-04 18:52 46.12415 8.68455 24729 ft 437 kts 153°
2026-05-04 18:53 46.09907 8.70947 24188 ft 436 kts 143°
2026-05-04 18:53 46.07767 8.73959 23645 ft 436 kts 133°
2026-05-04 18:53 46.05969 8.77523 23096 ft 436 kts 124°
2026-05-04 18:53 46.04431 8.81191 22581 ft 434 kts 123°
2026-05-04 18:54 46.02900 8.84904 22044 ft 431 kts 123°
2026-05-04 18:54 46.01376 8.88600 21509 ft 427 kts 123°
2026-05-04 18:54 45.99869 8.92253 20975 ft 424 kts 123°
2026-05-04 18:54 45.98388 8.95838 20449 ft 420 kts 123°
2026-05-04 18:55 45.96905 8.99424 19922 ft 416 kts 123°
2026-05-04 18:55 45.93958 9.06537 18872 ft 409 kts 123°
2026-05-04 18:55 45.92529 9.09983 18359 ft 406 kts 123°
2026-05-04 18:56 45.91086 9.13454 17835 ft 403 kts 123°
2026-05-04 18:56 45.89697 9.16795 17338 ft 400 kts 123°
2026-05-04 18:56 45.88286 9.20183 17150 ft 387 kts 123°
2026-05-04 18:56 45.86926 9.23448 17092 ft 373 kts 123°
2026-05-04 18:57 45.85632 9.26550 16952 ft 361 kts 123°
2026-05-04 18:57 45.84343 9.29632 16499 ft 361 kts 123°
2026-05-04 18:57 45.83046 9.32725 15651 ft 371 kts 123°
2026-05-04 18:57 45.81697 9.35944 14964 ft 375 kts 123°
2026-05-04 18:58 45.80382 9.39081 14563 ft 370 kts 123°
2026-05-04 18:58 45.79057 9.42239 14170 ft 364 kts 123°
2026-05-04 18:58 45.77773 9.45295 13741 ft 361 kts 123°
2026-05-04 18:58 45.76481 9.48366 13242 ft 359 kts 123°
2026-05-04 18:59 45.75198 9.51413 12820 ft 356 kts 123°
2026-05-04 18:59 45.73927 9.54428 12392 ft 352 kts 122°
2026-05-04 18:59 45.72661 9.57426 11961 ft 349 kts 122°
2026-05-04 18:59 45.71415 9.60374 11520 ft 346 kts 122°
2026-05-04 19:00 45.70181 9.63290 11075 ft 344 kts 122°
2026-05-04 19:00 45.68952 9.66190 10645 ft 341 kts 122°
2026-05-04 19:00 45.67680 9.69035 10440 ft 329 kts 130°
2026-05-04 19:00 45.66017 9.71096 10341 ft 314 kts 148°
2026-05-04 19:01 45.64146 9.72554 10305 ft 299 kts 154°
2026-05-04 19:01 45.62313 9.73777 10295 ft 285 kts 155°
2026-05-04 19:01 45.60527 9.74910 10171 ft 275 kts 156°
2026-05-04 19:01 45.58798 9.75989 10066 ft 264 kts 156°
2026-05-04 19:02 45.57142 9.77019 9768 ft 263 kts 156°
2026-05-04 19:02 45.55447 9.78072 9417 ft 263 kts 156°
2026-05-04 19:02 45.53789 9.79099 9091 ft 262 kts 157°
2026-05-04 19:02 45.52054 9.79776 8958 ft 254 kts 169°
2026-05-04 19:03 45.50328 9.80177 8942 ft 254 kts 170°
2026-05-04 19:03 45.48587 9.80559 8958 ft 253 kts 170°
2026-05-04 19:03 45.46837 9.80946 8976 ft 253 kts 170°
2026-05-04 19:03 45.45088 9.81335 8971 ft 253 kts 170°
2026-05-04 19:04 45.43363 9.81719 8965 ft 253 kts 170°
2026-05-04 19:04 45.41612 9.82109 8951 ft 254 kts 170°
2026-05-04 19:04 45.39872 9.82496 8960 ft 254 kts 170°
2026-05-04 19:04 45.38129 9.82884 8957 ft 254 kts 170°
2026-05-04 19:05 45.36370 9.83275 8971 ft 254 kts 170°
2026-05-04 19:05 45.34619 9.83664 9010 ft 254 kts 170°
2026-05-04 19:05 45.32959 9.84371 8985 ft 252 kts 148°
2026-05-04 19:05 45.31721 9.86082 8938 ft 246 kts 120°
2026-05-04 19:06 45.31060 9.88287 8924 ft 245 kts 109°
2026-05-04 19:06 45.30567 9.90584 8940 ft 244 kts 107°
2026-05-04 19:06 45.30115 9.92920 8938 ft 244 kts 103°
2026-05-04 19:06 45.30038 9.95303 8959 ft 244 kts 88°
2026-05-04 19:07 45.30176 9.97736 8951 ft 245 kts 86°
2026-05-04 19:07 45.30331 10.00153 8965 ft 246 kts 86°
2026-05-04 19:07 45.30489 10.02580 8945 ft 246 kts 84°
2026-05-04 19:07 45.30974 10.04890 8929 ft 249 kts 69°
2026-05-04 19:08 45.31690 10.07152 8909 ft 249 kts 67°
2026-05-04 19:08 45.32416 10.09367 8894 ft 249 kts 67°
2026-05-04 19:08 45.33147 10.11597 8888 ft 249 kts 64°
2026-05-04 19:08 45.34170 10.13571 8885 ft 252 kts 49°
2026-05-04 19:09 45.35388 10.15352 8884 ft 253 kts 47°
2026-05-04 19:09 45.36639 10.17133 8884 ft 253 kts 47°
2026-05-04 19:09 45.37886 10.18898 8879 ft 253 kts 43°
2026-05-04 19:09 45.39359 10.20247 8875 ft 254 kts 28°
2026-05-04 19:10 45.40963 10.21345 8875 ft 255 kts 26°
2026-05-04 19:10 45.42586 10.22423 8874 ft 256 kts 26°
2026-05-04 19:10 45.44197 10.23500 8872 ft 255 kts 26°
2026-05-04 19:10 45.45809 10.24458 8575 ft 254 kts 13°
2026-05-04 19:11 45.47556 10.24375 8116 ft 258 kts 341°
2026-05-04 19:11 45.49047 10.22990 7716 ft 257 kts 309°
2026-05-04 19:11 45.49800 10.20773 7356 ft 252 kts 278°
2026-05-04 19:11 45.49933 10.18301 7039 ft 249 kts 277°
2026-05-04 19:12 45.50539 10.16037 6683 ft 249 kts 302°
2026-05-04 19:12 45.52825 10.12340 6043 ft 247 kts 315°
2026-05-04 19:12 45.54031 10.10648 5773 ft 244 kts 315°
2026-05-04 19:13 45.55236 10.08967 5566 ft 238 kts 315°
2026-05-04 19:13 45.56417 10.07315 5220 ft 240 kts 315°
2026-05-04 19:13 45.57607 10.05651 5025 ft 235 kts 315°
2026-05-04 19:13 45.58760 10.04038 4935 ft 230 kts 315°
2026-05-04 19:14 45.59862 10.02494 4865 ft 217 kts 315°
2026-05-04 19:14 45.60812 10.00917 4716 ft 206 kts 302°
2026-05-04 19:14 45.61426 9.99081 4472 ft 203 kts 289°
2026-05-04 19:14 45.61836 9.97170 4221 ft 201 kts 285°
2026-05-04 19:15 45.62190 9.95264 3971 ft 199 kts 284°
2026-05-04 19:15 45.62537 9.93351 3719 ft 198 kts 284°
2026-05-04 19:15 45.62889 9.91444 3462 ft 198 kts 284°
2026-05-04 19:15 45.63242 9.89565 3204 ft 192 kts 285°
2026-05-04 19:16 45.63575 9.87794 2963 ft 179 kts 285°
2026-05-04 19:16 45.63885 9.86143 2739 ft 166 kts 285°
2026-05-04 19:16 45.64180 9.84582 2525 ft 160 kts 285°
2026-05-04 19:16 45.64468 9.83049 2313 ft 158 kts 285°
2026-05-04 19:17 45.64749 9.81553 2105 ft 159 kts 285°
2026-05-04 19:17 45.65033 9.80042 1889 ft 158 kts 284°
2026-05-04 19:17 45.65315 9.78537 1675 ft 156 kts 284°
2026-05-04 19:17 45.65595 9.77046 1464 ft 152 kts 284°
2026-05-04 19:18 45.65863 9.75610 1241 ft 151 kts 284°
2026-05-04 19:18 45.66124 9.74154 1039 ft 148 kts 283°
2026-05-04 19:18 45.66369 9.72626 1167 ft 169 kts 282°
2026-05-04 19:18 45.66661 9.70871 1545 ft 201 kts 283°
2026-05-04 19:19 45.66978 9.68916 2461 ft 199 kts 284°
2026-05-04 19:19 45.67342 9.67035 2874 ft 209 kts 289°
2026-05-04 19:19 45.67565 9.64822 2920 ft 236 kts 258°
2026-05-04 19:19 45.66875 9.62818 3715 ft 227 kts 227°
2026-05-04 19:20 45.65549 9.61557 4080 ft 240 kts 197°
2026-05-04 19:20 45.63799 9.61425 4128 ft 267 kts 167°
2026-05-04 19:20 45.62081 9.62631 4128 ft 294 kts 139°
2026-05-04 19:20 45.60573 9.64768 4139 ft 321 kts 133°
2026-05-04 19:21 45.58978 9.67224 4136 ft 347 kts 132°
2026-05-04 19:21 45.57298 9.69823 4132 ft 368 kts 133°
2026-05-04 19:21 45.55473 9.72257 4118 ft 349 kts 144°
2026-05-04 19:21 45.53413 9.73867 4124 ft 330 kts 155°
2026-05-04 19:22 45.51358 9.75144 4115 ft 312 kts 155°
2026-05-04 19:22 45.49618 9.76824 4114 ft 296 kts 136°
2026-05-04 19:22 45.48067 9.78600 4113 ft 280 kts 153°
2026-05-04 19:22 45.46271 9.79379 4123 ft 264 kts 171°
2026-05-04 19:23 45.44544 9.80078 4101 ft 249 kts 150°
2026-05-04 19:23 45.43289 9.81629 4077 ft 234 kts 124°
2026-05-04 19:23 45.42654 9.83637 4055 ft 219 kts 100°
2026-05-04 19:23 45.42629 9.85711 4050 ft 201 kts 78°
2026-05-04 19:24 45.43166 9.87680 4058 ft 227 kts 57°
2026-05-04 19:24 45.44276 9.89313 4046 ft 229 kts 32°
2026-05-04 19:24 45.45645 9.90367 4044 ft 225 kts 34°
2026-05-04 19:24 45.46843 9.91809 4043 ft 222 kts 45°
2026-05-04 19:25 45.47910 9.93365 4043 ft 222 kts 47°
2026-05-04 19:25 45.48981 9.94984 4041 ft 222 kts 47°
2026-05-04 19:25 45.50181 9.96314 4030 ft 221 kts 26°
2026-05-04 19:25 45.51648 9.97021 4031 ft 222 kts 16°
2026-05-04 19:26 45.53132 9.97599 4034 ft 221 kts 15°
2026-05-04 19:26 45.54595 9.98156 4031 ft 214 kts 15°
2026-05-04 19:26 45.55979 9.98683 4027 ft 196 kts 15°
2026-05-04 19:26 45.57257 9.99171 4022 ft 186 kts 15°
2026-05-04 19:27 45.58508 9.99649 4023 ft 186 kts 15°
2026-05-04 19:27 45.59765 10.00004 4019 ft 186 kts 357°
2026-05-04 19:27 45.60979 9.99395 4018 ft 187 kts 323°
2026-05-04 19:27 45.61703 9.97895 4009 ft 188 kts 289°
2026-05-04 19:28 45.62050 9.96076 3999 ft 188 kts 284°
2026-05-04 19:28 45.62365 9.94263 3789 ft 186 kts 284°
2026-05-04 19:28 45.62694 9.92472 3557 ft 188 kts 285°
2026-05-04 19:28 45.63031 9.90683 3320 ft 185 kts 285°
2026-05-04 19:29 45.63357 9.88952 3087 ft 174 kts 285°
2026-05-04 19:29 45.63659 9.87341 2878 ft 165 kts 285°
2026-05-04 19:29 45.63953 9.85782 2669 ft 160 kts 286°
2026-05-04 19:29 45.64238 9.84273 2467 ft 157 kts 285°
2026-05-04 19:30 45.64518 9.82766 2259 ft 156 kts 284°
2026-05-04 19:30 45.64802 9.81263 2048 ft 157 kts 284°
2026-05-04 19:30 45.65088 9.79744 1835 ft 158 kts 284°
2026-05-04 19:30 45.65370 9.78242 1625 ft 157 kts 284°
2026-05-04 19:31 45.65649 9.76736 1388 ft 158 kts 283°
2026-05-04 19:31 45.65923 9.75235 1158 ft 152 kts 285°
2026-05-04 19:31 45.66208 9.73795 974 ft 152 kts 283°
2026-05-04 19:31 45.66477 9.72328 826 ft 151 kts 284°
2026-05-04 19:32 45.66726 9.70966 795 ft 125 kts 286°
2026-05-04 19:32 45.66908 9.70016 798 ft 72 kts 285°
2026-05-04 19:32 45.66988 9.69574 797 ft 24 kts 285°
2026-05-04 19:32 45.67039 9.69319 797 ft 28 kts 285°
2026-05-04 19:33 45.67049 9.69060 796 ft 23 kts 249°
2026-05-04 19:33 45.66946 9.69016 795 ft 16 kts 149°
2026-05-04 19:33 45.66897 9.69165 796 ft 17 kts 104°
2026-05-04 19:33 45.66870 9.69335 795 ft 17 kts 104°
2026-05-04 19:34 45.66837 9.69505 796 ft 18 kts 106°
2026-05-04 19:34 45.66804 9.69676 796 ft 18 kts 106°
2026-05-04 19:34 45.66770 9.69855 796 ft 18 kts 104°
2026-05-04 19:34 45.66736 9.70041 796 ft 19 kts 104°
2026-05-04 19:35 45.66703 9.70220 796 ft 18 kts 105°
2026-05-04 19:35 45.66678 9.70359 796 ft 13 kts 105°
2026-05-04 19:35 45.66651 9.70494 795 ft 15 kts 105°
2026-05-04 19:35 45.66616 9.70593 795 ft 2 kts 146°
2026-05-04 19:36 45.66598 9.70593 795 ft 4 kts 189°
2026-05-04 19:36 45.66574 9.70586 794 ft 4 kts 192°
2026-05-04 19:36 45.66568 9.70584 793 ft 0 kts 193°